Regional Weather Roundup
Issued by NWS

Home | Current Version | Previous Version | Graphics & Text | Print | Product List | Glossary On
Versions: 1 2 3 4 5 6 7 8 9 10 11 12 13 14 15 16 17 18 19 20 21 22 23 24 25 26 27 28 29 30 31 32 33 34 35 36 37 38 39 40 41 42 43 44 45 46 47 48 49 50
000
ASUS43 KLSX 202007
RWRMO

WEATHER SUMMARY FOR MISSOURI
NATIONAL WEATHER SERVICE SPRINGFIELD MO
300 PM CDT MON OCT 20 2014

NOTE: "FAIR" INDICATES FEW OR NO CLOUDS BELOW 12,000 FEET WITH NO
       SIGNIFICANT WEATHER AND/OR OBSTRUCTIONS TO VISIBILITY.
       CURRENT SKY AND/OR WEATHER CONDITIONS ARE NOT AVAILABLE FOR
       CHILLICOTHE AND FARMINGTON.

MOZ001>031-035>038-043-044-053-054-202100-
...NORTHERN AND WESTERN MISSOURI...

CITY           SKY/WX    TMP DP  RH WIND       PRES   REMARKS
KANSAS CTY INT SUNNY     73  46  38 NW7       30.04F
KANSAS C DTWN  SUNNY     75  47  36 NE5       30.03S
LEE`S SUMMIT   SUNNY     73  47  39 N7        30.04F
ST JOSEPH      SUNNY     75  42  30 N6        30.04F
CHILLICOTHE      N/A     73  43  33 VRB3      30.03F
KIRKSVILLE     SUNNY     70  43  37 NW12G22   30.01F

$$
MOZ066>068-077>081-088>096-101>105-202100-
...SOUTHWEST MISSOURI...

CITY           SKY/WX    TMP DP  RH WIND       PRES   REMARKS
SPRINGFIELD    SUNNY     73  55  53 CALM      30.01F
JOPLIN         SUNNY     74  58  57 NW3       30.03F

$$
MOZ032>034-039>042-045>050-055>058-069>072-202100-
...CENTRAL MISSOURI...

CITY           SKY/WX    TMP DP  RH WIND       PRES   REMARKS
COLUMBIA       SUNNY     73  47  39 NW6       29.99F
JEFFERSON CITY SUNNY     74  47  38 W8        29.98F
ROLLA          SUNNY     72  52  49 NW6       29.98F
SEDALIA        SUNNY     75  46  35 N6        30.02F
WHITEMAN AFB   SUNNY     73  48  41 N7        30.01F
OSAGE BEACH    SUNNY     73  54  49 W10       30.00F

$$
MOZ051-052-059>065-202100-
...EAST CENTRAL MISSOURI...

CITY           SKY/WX    TMP DP  RH WIND       PRES   REMARKS
ST LOUIS INTL  MOSUNNY   74  49  41 NW12G18   29.95F
SPIRIT OF STL  SUNNY     73  46  38 NW10G20   29.94F
ST CHARLES     SUNNY     72  42  34 NW15      29.93F

$$
MOZ072>076-082>087-097>100-106>115-202100-
...SOUTH CENTRAL AND SOUTHEAST MISSOURI...

CITY           SKY/WX    TMP DP  RH WIND       PRES   REMARKS
CAPE GIRARDEAU SUNNY     73  54  51 SW10      29.95F
FARMINGTON     MOSUNNY   75  52  43 W7        29.97S
WEST PLAINS    MOSUNNY   72  56  57 SW6       30.00F

$$



USA.gov is the U.S. government's official web portal to all federal, state and local government web resources and services.